Location: Crescent
(42.8242°N, 73.7329°W)
Time: 18:49:45
(UTC+00:00)

Transit 4A - Visible Passes

Search period start: 18 February 2026 00:00
Search period end: 28 February 2026 00:00
Orbit: 865 x 976 km, 66.8° (Epoch: 17 February)

Date Brightness Start Highest point End Pass type
(mag) Time Alt. Az. Time Alt. Az. Time Alt. Az.
18 Feb 10.4 07:30:08 14° ENE 07:30:08 14° ENE 07:31:09 10° NE visible
18 Feb 8.3 09:13:37 46° NNW 09:13:37 46° NNW 09:18:15 10° NNE visible
18 Feb 9.6 10:57:06 10° WNW 11:00:05 14° NNW 11:03:10 10° N visible
19 Feb 10.2 07:38:55 17° NE 07:38:55 17° NE 07:40:23 10° NE visible
19 Feb 8.7 09:22:24 36° NNW 09:22:24 36° NNW 09:26:52 10° NNE visible
19 Feb 9.8 11:07:47 10° NW 11:09:23 11° NNW 11:11:00 10° N visible
20 Feb 10.0 07:47:38 20° NE 07:47:38 20° NE 07:49:24 10° NE visible
20 Feb 9.0 09:31:07 28° NNW 09:31:07 28° NNW 09:35:26 10° NNE visible
21 Feb 9.9 07:56:18 22° NE 07:56:18 22° NE 07:58:16 10° NNE visible
21 Feb 9.2 09:39:47 22° NNW 09:39:47 22° NNW 09:43:55 10° N visible
22 Feb 9.8 08:04:56 23° NNE 08:04:56 23° NNE 08:07:03 10° NNE visible
22 Feb 9.5 09:48:24 17° NW 09:48:27 17° NW 09:52:18 10° N visible
23 Feb 9.7 08:13:30 22° NNE 08:13:30 22° NNE 08:15:44 10° NNE visible
23 Feb 9.7 09:56:59 13° NW 09:57:42 13° NNW 10:00:31 10° N visible
24 Feb 9.7 08:22:03 21° N 08:22:03 21° N 08:24:20 10° NNE visible
24 Feb 9.9 10:05:57 10° NW 10:07:02 10° NNW 10:08:07 10° NNW visible
25 Feb 9.7 08:30:34 20° N 08:30:34 20° N 08:32:53 10° NNE visible
26 Feb 10.7 06:55:36 11° NNE 06:55:36 11° NNE 06:55:47 10° NNE visible
26 Feb 9.8 08:39:04 17° NNW 08:39:04 17° NNW 08:41:21 10° N visible
27 Feb 10.5 07:04:04 12° NNE 07:04:04 12° NNE 07:04:32 10° NNE visible
27 Feb 9.9 08:47:31 15° NNW 08:47:31 15° NNW 08:49:42 10° N visible
